Weather History for Newark, NJ

Change the Weather History Date:

Saturday, October 12, 2013

  Actual Average Record
Temperature  
Mean Temperature 66 °F 58 °F  
Max Temperature 73 °F 67 °F 88 °F (1954)
Min Temperature 59 °F 49 °F 35 °F (1996)
Degree Days  
Heating Degree Days 0 8  
Month to date heating degree days 20 74  
Since 1 July heating degree days 67 119  
Cooling Degree Days 1 1  
Month to date cooling degree days 44 13  
Year to date cooling degree days 1334 1187  
Growing Degree Days 16 (Base 50)    
Moisture  
Dew Point 47 °F    
Average Humidity 48    
Maximum Humidity 73    
Minimum Humidity 23    
Precipitation  
Precipitation 0.00 in 0.11 in 3.16 in (2005)
Month to date precipitation 0.38 1.43  
Year to date precipitation 35.22 36.62  
Snow  
Snow 0.00 in 0.00 in 0.00 in (2002)
Month to date snowfall 0.0 0.0  
Since 1 July snowfall 0.0 0.0  
Snow Depth 0.00 in    
Sea Level Pressure  
Sea Level Pressure 30.17 in    
Wind  
Wind Speed 13 mph (NE)    
Max Wind Speed 23 mph    
Max Gust Speed 29 mph    
Visibility 10 miles    
Events      
T = Trace of Precipitation, MM = Missing Value Source: NWS Daily Summary

Daily Weather History Graph

Daily Weather History Graph

Search for Another Location

Airport:

Trip Planner

Search our weather history database for the weather conditions in past years. The results will help you decide how hot, cold, wet, or windy it might be!

Date:

Astronomy

Oct. 12, 2013 Rise Set
Actual Time 7:04 AM EDT 6:20 PM EDT
Civil Twilight 6:37 AM EDT 6:48 PM EDT
Nautical Twilight 6:05 AM EDT 7:19 PM EDT
Astronomical Twilight 5:33 AM EDT 7:51 PM EDT
Moon 2:30 PM EDT (10/12) 12:03 AM EDT (10/12)
Length of Visible Light 12h 10m
Length of Day
11h 15m
First Quarter, 58% of the Moon is Illuminated
Oct 12
First Quarter
Oct 18
Full
Oct 26
Last Quarter
Nov 3
New
Nov 10
First Quarter

Hourly Weather History & Observations

Time (EDT) Temp. Dew Point Humidity Pressure Visibility Wind Dir Wind Speed Gust Speed Precip Events Conditions
12:51 AM 66.0 °F 52.0 °F 60% 30.08 in 10.0 mi NNE 10.4 mph - N/A   Mostly Cloudy
1:51 AM 64.9 °F 48.9 °F 56% 30.08 in 10.0 mi NNE 10.4 mph - N/A   Overcast
2:51 AM 63.0 °F 44.1 °F 50% 30.09 in 10.0 mi NNE 12.7 mph - N/A   Mostly Cloudy
3:51 AM 62.1 °F 46.0 °F 56% 30.09 in 10.0 mi NNE 10.4 mph - N/A   Mostly Cloudy
4:51 AM 62.1 °F 39.9 °F 44% 30.11 in 10.0 mi NNE 13.8 mph - N/A   Mostly Cloudy
5:51 AM 61.0 °F 37.9 °F 42% 30.11 in 10.0 mi NNE 11.5 mph - N/A   Mostly Cloudy
6:51 AM 61.0 °F 37.0 °F 41% 30.12 in 10.0 mi NNE 10.4 mph - N/A   Mostly Cloudy
7:51 AM 59.0 °F 43.0 °F 55% 30.14 in 10.0 mi NNE 10.4 mph - N/A   Mostly Cloudy
8:51 AM 61.0 °F 39.9 °F 46% 30.15 in 10.0 mi NNE 16.1 mph 21.9 mph N/A   Mostly Cloudy
9:51 AM 64.0 °F 42.1 °F 45% 30.16 in 10.0 mi NE 12.7 mph 21.9 mph N/A   Mostly Cloudy
10:51 AM 66.0 °F 43.0 °F 43% 30.18 in 10.0 mi NE 13.8 mph - N/A   Mostly Cloudy
11:51 AM 70.0 °F 46.0 °F 42% 30.19 in 10.0 mi ENE 12.7 mph 18.4 mph N/A   Mostly Cloudy
12:51 PM 69.1 °F 51.1 °F 53% 30.17 in 10.0 mi NE 18.4 mph - N/A   Scattered Clouds
1:51 PM 69.1 °F 50.0 °F 51% 30.17 in 10.0 mi NE 18.4 mph 24.2 mph N/A   Scattered Clouds
2:51 PM 71.1 °F 48.9 °F 45% 30.17 in 10.0 mi ENE 10.4 mph 23.0 mph N/A   Scattered Clouds
3:51 PM 73.0 °F 34.0 °F 24% 30.18 in 10.0 mi ENE 17.3 mph 26.5 mph N/A   Scattered Clouds
4:51 PM 73.0 °F 37.9 °F 28% 30.19 in 10.0 mi ENE 15.0 mph 18.4 mph N/A   Scattered Clouds
5:51 PM 70.0 °F 42.1 °F 36% 30.20 in 10.0 mi ENE 12.7 mph 23.0 mph N/A   Mostly Cloudy
6:51 PM 68.0 °F 48.0 °F 49% 30.22 in 10.0 mi ENE 15.0 mph 25.3 mph N/A   Mostly Cloudy
7:51 PM 66.0 °F 53.1 °F 63% 30.24 in 10.0 mi ENE 16.1 mph 23.0 mph N/A   Mostly Cloudy
8:51 PM 64.9 °F 55.0 °F 70% 30.25 in 10.0 mi ENE 13.8 mph 21.9 mph N/A   Overcast
9:02 PM 64.4 °F 55.4 °F 73% 30.26 in 10.0 mi ENE 12.7 mph 21.9 mph N/A   Overcast
9:51 PM 64.9 °F 54.0 °F 68% 30.27 in 10.0 mi NE 17.3 mph 23.0 mph N/A   Overcast
10:51 PM 63.0 °F 53.1 °F 70% 30.29 in 10.0 mi NE 11.5 mph - N/A   Overcast
11:51 PM 62.1 °F 52.0 °F 70% 30.28 in 10.0 mi ENE 10.4 mph - N/A   Overcast